Regional Weather Roundup
Issued by NWS Upton, NY

Current Version | Previous Version | Text Only | Print | Product List | Glossary On
Versions: 1 2 3 4 5 6 7 8 9 10 11 12 13 14 15 16 17 18 19 20 21 22 23 24 25 26 27 28 29 30 31 32 33 34 35 36 37 38 39 40 41 42 43 44 45 46 47 48 49 50
830
ASUS41 KOKX 220508
RWROKX

REGIONAL WEATHER ROUNDUP
NATIONAL WEATHER SERVICE NEW YORK NY
100 AM EDT FRI MAY 22 2015

NOTE: "FAIR" INDICATES FEW OR NO CLOUDS BELOW 12,000 FEET WITH NO
SIGNIFICANT WEATHER AND/OR OBSTRUCTIONS TO VISIBILITY.

NYZ071-072-176-178-NJZ106-104-220600-
NEW YORK CITY METRO AREA


CITY           SKY/WX    TMP DP  RH WIND       PRES   REMARKS
CENTRAL PARK   CLOUDY    55  46  71 VRB3      29.90F
LAGUARDIA APRT CLOUDY    55  46  71 W7        29.88S
KENNEDY INTL   CLOUDY    54  46  74 W6        29.89F
NEWARK/LIBERTY CLOUDY    54  48  80 W8        29.88F
BRNX BOT. GARD   N/A     54  45  71 W1        29.88F
TETERBORO      CLOUDY    54  46  74 SW7       29.87F
$$

NYZ177-179-078>081-220600-
LONG ISLAND NEW YORK

CITY           SKY/WX    TMP DP  RH WIND       PRES   REMARKS
FARMINGDALE    CLOUDY    52  46  80 CALM      29.88F
ISLIP          LGT RAIN  50  46  86 SW6       29.86F
SHIRLEY        LGT RAIN  50  47  89 S3        29.88F
WESTHAMPTON    LGT RAIN  49  48  97 SW3       29.89F
MONTAUK POINT    N/A     51  47  86 CALM      29.89S
$$

NYZ052-065-067-220600-
HUDSON VALLEY

CITY           SKY/WX    TMP DP  RH WIND       PRES   REMARKS
WHITE PLAINS   CLOUDY    51  44  77 CALM      29.86F
NEWBURGH       MOCLDY    54  46  76 W7        29.87F
MONTGOMERY     CLOUDY    55  43  63 W8        29.87S
POUGHKEEPSIE   CLOUDY    56  43  61 CALM      29.85S
ALBANY         CLOUDY    56  39  53 W5        29.84F
$$

NJZ001-105-106-008-010-013-015-019>022-104-220600-
NEW JERSEY

CITY           SKY/WX    TMP DP  RH WIND       PRES   REMARKS
NEWARK/LIBERTY CLOUDY    54  48  80 W8        29.88F
TETERBORO      CLOUDY    54  46  74 SW7       29.87F
CALDWELL       CLOUDY    52  46  80 CALM      29.89S
MORRISTOWN     CLOUDY    54  46  76 CALM      29.89S
SOMERVILLE     CLOUDY    52  47  83 CALM      29.88S
SUSSEX         CLOUDY    52  43  71 CALM      29.89S
ANDOVER          N/A     51  44  77 CALM      29.89S
TRENTON        CLOUDY    51  48  89 NW3       29.88F
MILLVILLE      CLOUDY    51  50  96 NW7       29.91S
ATLANTIC CITY  CLOUDY    50  48  93 NW6       29.90S
WRIGHTSTOWN    CLOUDY    50  50  99 W3        29.87F
TOMS RIVER     CLOUDY    50  48  93 W6        29.90S
BELMAR         CLOUDY    50  45  81 NW3       29.89S
$$

PAZ047>061-062-071-220600-
EASTERN PENNSYLVANIA

CITY           SKY/WX    TMP DP  RH WIND       PRES   REMARKS
PHILADELPHIA   CLOUDY    54  47  77 W6        29.92S
ALLENTOWN      CLOUDY    54  43  66 NW7       29.90S
SCRANTON       LGT RAIN  51  44  77 SW5       29.90S
$$

CTZ002-004>006-009-010-012-RIZ004-006-007-MAZ004-011-015-220600-
SOUTHERN NEW ENGLAND
 IN CT

CITY           SKY/WX    TMP DP  RH WIND       PRES   REMARKS
BRADLEY INTL   CLOUDY    54  44  69 S8        29.84F
HARTFORD       CLOUDY    53  44  71 S6        29.86F
DANBURY        CLOUDY    51  43  74 W3        29.88F
WTRBRY/OXFORD  CLOUDY    50  41  71 SW3       29.88F
BRIDGEPORT     CLOUDY    54  46  74 SW5       29.87F
MERIDEN        CLOUDY    52  44  74 S3        29.87F
NEW HAVEN      CLOUDY    53  45  74 CALM      29.87F
CHESTER        CLOUDY    50  45  81 CALM      29.88S
GROTON         LGT RAIN  50  46  86 S5        29.87F
WILLIMANTIC    CLOUDY    52  40  63 S3        29.86F

 IN RI

CITY           SKY/WX    TMP DP  RH WIND       PRES   REMARKS
PROVIDENCE     CLOUDY    53  42  66 S8        29.87F
BLOCK ISLAND   CLOUDY    52  46  82 S6        29.88F
WESTERLY       LGT RAIN  50  48  93 CALM      29.88F FOG

 IN MA

CITY           SKY/WX    TMP DP  RH WIND       PRES   REMARKS
BOSTON         CLOUDY    54  39  57 SW10      29.84F
WORCESTER      CLOUDY    51  38  60 SW8       29.84F
WESTFIELD      CLOUDY    54  42  64 S6        29.84F
PROVINCETOWN   CLOUDY    54  45  71 S10       29.87F
NANTUCKET      LGT RAIN  51  48  89 SE6       29.90F
$$

ANZ330-335-338-340-345-350-353-355-220600-
COASTAL MARINE OBSERVATIONS


STATION/POSITION TIME  SKY/WX   TEMP    WIND        PRES    VSBY  WAVE
                                AIR SEA DIR/SP/G                  HT/PER
                 (UTC)          (F)     (DEG/KT/KT) (MB)    (MI)  (FT/S)
NY HARB ENTRANCE 0450            53 56  270/  8/  8 1011.6          1/ 9
4S FIRE IS       0403               53                N/A           1/ 9
20S FIRE ISLAND  0450            49 54  340/  2/  4 1011.6          1/ 8
GREAT SOUTH BAY  0400            51 63  210/  4/  8   N/A
23SW MTP         0450            50 54  120/  6/  6 1011.2          1/ 8
HUDSON CANYON    NOT AVBL
KINGS POINT      0400            53 53  220/  5/  5 1011.4
CENTRAL LI SOUND 0430            53 52  320/  4/  4   N/A
EASTERN LI SOUND 0400            51     150/  2/  4   N/A
ROBBINS REEF     0400            53     250/  5/  6 1011.1
$$


>>>>>>>>>>>>>>>>>>>>>>>>>>>> KEY <<<<<<<<<<<<<<<<<<<<<<<<<<<
>                                                          <
>     SKY/WX - SKY CONDITION/PRESENT WEATHER               <
>     TMP    - TEMPERATURE IN FAHRENHEIT                   <
>     DP     - DEWPOINT IN FAHRENHEIT                      <
>     RH     - RELATIVE HUMIDITY IN PERCENT                <
>     WIND   - DIRECTION AND SPEED IN MPH                  <
>     PRES   - MEAN SEA LEVEL PRESSURE IN INCHES OF HG     <
>     WCI    - WIND CHILL INDEX                            <
>     VSB    - VISIBILITY IN MILES                         <
>     HX     - HEAT INDEX                                  <
>     TC     - TEMPERATURE IN CELSIUS                      <
>     VRB    - VARIABLE WIND DIRECTION                     <
>                                                          <
>>>>>>>>>>>>>>>>>>>>>>>>>>>> KEY <<<<<<<<<<<<<<<<<<<<<<<<<<<





USA.gov is the U.S. government's official web portal to all federal, state and local government web resources and services.